EW6030 Weather Reports


Display with metric or nautical units.
time (UTC)temp
F
wind
direction
speed
MPH
gust
MPH
rain 1hr
in
rain 24hr
in
rain mn
in
humidity
%
barometer
mb
20260903014524 78 51 0.0 0.0 0.00 0.00 0.00 76 1008.2
20260903013022 78 51 0.0 0.0 0.00 0.00 0.00 76 1008.0
20260903011522 78 51 0.0 0.0 0.00 0.00 0.00 76 1007.9
20260903010022 78 51 0.0 0.0 0.00 0.00 0.00 76 1007.8
20260903004521 79 51 0.0 0.0 0.00 0.00 0.00 76 1007.8
20260903003021 80 51 0.0 0.0 0.00 0.00 0.00 75 1007.8
20260903001520 80 51 0.0 0.0 0.00 0.00 0.00 75 1007.8
20260903000020 81 51 0.0 0.0 0.00 0.00 0.00 74 1007.7
20260902234521 82 51 0.0 0.0 0.00 0.00 0.00 74 1007.6
20260902233020 83 51 0.0 0.0 0.00 0.00 0.00 73 1007.5
20260902231519 84 51 0.0 0.0 0.00 0.00 0.00 71 1007.6
20260902230018 86 51 0.0 0.0 0.00 0.00 0.00 69 1007.6
20260902224517 86 51 0.0 0.0 0.00 0.00 0.00 69 1007.5
20260902223020 86 50 0.0 0.0 0.00 0.00 0.00 68 1007.6
20260902221518 85 54 0.0 0.0 0.00 0.00 0.00 73 1007.7
20260902220020 85 54 0.0 0.0 0.00 0.00 0.00 72 1007.7
20260902214513 86 58 0.0 0.0 0.00 0.00 0.00 71 1007.9
20260902213012 86 58 0.0 0.0 0.00 0.00 0.00 71 1008.0
20260902211511 86 58 0.0 0.0 0.00 0.00 0.00 69 1008.1
20260902210017 87 58 2.0 0.0 0.00 0.00 0.00 68 1008.2
20260902204510 87 58 1.0 0.0 0.00 0.00 0.00 65 1007.9
20260902203009 87 53 0.0 0.0 0.00 0.00 0.00 67 1008.0
20260902201517 88 53 0.0 0.0 0.00 0.00 0.00 67 1008.3
20260902200007 88 53 0.0 0.0 0.00 0.00 0.00 66 1008.1
20260902194504 87 54 1.0 0.0 0.00 0.00 0.00 67 1008.3
20260902193003 87 53 1.0 0.0 0.00 0.00 0.00 70 1008.5
20260902191501 87 51 0.0 0.0 0.00 0.00 0.00 69 1008.4
20260902190059 87 51 0.0 0.0 0.00 0.00 0.00 70 1008.4
20260902184558 86 51 0.0 0.0 0.00 0.00 0.00 71 1008.4
20260902183055 85 51 0.0 0.0 0.00 0.00 0.00 72 1008.6
20260902181555 85 50 0.0 0.0 0.00 0.00 0.00 73 1008.4
20260902180054 85 55 0.0 0.0 0.00 0.00 0.00 73 1008.6
20260902174549 84 55 0.0 0.0 0.00 0.00 0.00 73 1008.8
20260902173047 83 33 0.0 0.0 0.00 0.00 0.00 73 1009.2
20260902171602 83 33 0.0 0.0 0.00 0.00 0.00 73 1009.2
20260902170043 82 33 0.0 0.0 0.00 0.00 0.00 74 1009.5
20260902164540 82 313 0.0 0.0 0.00 0.00 0.00 75 1009.4
20260902163039 81 313 0.0 0.0 0.00 0.00 0.00 74 1009.4
20260902161536 80 314 0.0 0.0 0.00 0.00 0.00 75 1009.5
20260902160034 79 274 0.0 0.0 0.00 0.00 0.00 76 1009.4
20260902154533 79 274 0.0 0.0 0.00 0.00 0.00 76 1009.5
20260902153033 78 275 0.0 0.0 0.00 0.00 0.00 76 1009.4
20260902151529 78 274 0.0 0.0 0.00 0.00 0.00 76 1009.6
20260902150026 77 274 0.0 0.0 0.00 0.00 0.00 77 1009.7
20260902144525 76 297 0.0 0.0 0.00 0.00 0.00 77 1009.0
20260902143025 76 257 0.0 0.0 0.00 0.00 0.00 77 1008.9
20260902141525 76 252 0.0 0.0 0.00 0.00 0.00 77 1009.3
20260902140034 75 235 0.0 0.0 0.00 0.00 0.00 77 1009.3
20260902134524 75 149 0.0 0.0 0.00 0.00 0.00 77 1009.8
20260902133023 75 139 0.0 0.0 0.00 0.00 0.00 77 1010.1
20260902131523 74 139 0.0 0.0 0.00 0.00 0.00 77 1010.1
20260902130022 74 139 0.0 0.0 0.00 0.00 0.00 77 1010.2
20260902124521 74 156 0.0 0.0 0.00 0.00 0.00 77 1010.1
20260902123025 74 156 0.0 0.0 0.00 0.00 0.00 77 1010.1
20260902121520 74 156 0.0 0.0 0.00 0.00 0.00 77 1009.7
20260902120019 74 161 0.0 0.0 0.00 0.00 0.00 77 1009.7
20260902114518 74 161 0.0 0.0 0.00 0.00 0.00 76 1009.9
20260902113017 74 161 0.0 0.0 0.00 0.00 0.00 75 1009.8
20260902111534 75 161 0.0 0.0 0.00 0.00 0.00 74 1009.7
20260902110043 75 161 0.0 0.0 0.00 0.00 0.00 74 1009.9
20260902104518 75 161 0.0 0.0 0.00 0.00 0.00 73 1009.9
20260902103014 75 161 0.0 0.0 0.00 0.00 0.00 74 1009.9
20260902101513 75 161 0.0 0.0 0.00 0.00 0.00 74 1009.6
20260902100015 76 161 0.0 0.0 0.00 0.00 0.00 75 1010.0
20260902094512 76 161 0.0 0.0 0.00 0.00 0.00 74 1009.1
20260902093011 76 161 0.0 0.0 0.00 0.00 0.00 74 1009.2
20260902091511 76 161 0.0 0.0 0.00 0.00 0.00 74 1009.6
20260902090011 76 161 0.0 0.0 0.00 0.00 0.00 75 1009.4
20260902084510 76 161 0.0 0.0 0.00 0.00 0.00 74 1009.3
20260902083015 76 161 0.0 0.0 0.00 0.00 0.00 75 1009.3
20260902081509 76 161 0.0 0.0 0.00 0.00 0.00 75 1009.2
20260902080008 76 156 0.0 0.0 0.00 0.00 0.00 74 1009.2
20260902074507 76 156 0.0 0.0 0.00 0.00 0.00 74 1008.9
20260902073007 75 156 0.0 0.0 0.00 0.00 0.00 75 1008.8
20260902071506 75 156 1.0 0.0 0.00 0.00 0.00 75 1008.9
20260902070007 75 66 0.0 0.0 0.00 0.00 0.00 75 1008.8
20260902064504 75 66 0.0 0.0 0.00 0.00 0.00 75 1008.9
20260902063013 75 66 0.0 0.0 0.00 0.00 0.00 75 1009.2
20260902061503 75 66 0.0 0.0 0.00 0.00 0.00 76 1009.1
20260902060002 75 66 0.0 0.0 0.00 0.00 0.00 76 1009.0
20260902054500 75 66 0.0 0.0 0.00 0.00 0.00 76 1009.0
20260902053003 75 66 0.0 0.0 0.00 0.00 0.00 76 1009.2
20260902051601 75 66 0.0 0.0 0.00 0.00 0.00 76 1009.3
20260902050057 75 66 0.0 0.0 0.00 0.00 0.00 77 1009.2
20260902044557 76 66 0.0 0.0 0.00 0.00 0.00 77 1008.9
20260902043102 76 66 0.0 0.0 0.00 0.00 0.00 77 1008.9
20260902041553 77 66 0.0 0.0 0.00 0.00 0.00 77 1009.0
20260902040050 77 66 0.0 0.0 0.00 0.00 0.00 77 1009.2
20260902034549 77 66 0.0 0.0 0.00 0.00 0.00 77 1009.1
20260902033103 78 66 0.0 0.0 0.00 0.00 0.00 77 1009.1
20260902031547 78 66 0.0 0.0 0.00 0.00 0.00 76 1009.0
20260902030047 79 66 0.0 0.0 0.00 0.00 0.00 76 1008.8
20260902024547 79 66 0.0 0.0 0.00 0.00 0.00 75 1008.6
20260902023049 78 55 0.0 0.0 0.00 0.00 0.00 75 1008.5
20260902021546 78 55 0.0 0.0 0.00 0.00 0.00 76 1009.0
20260902020046 78 55 0.0 0.0 0.00 0.00 0.00 76 1009.1